Location: ?
(35.4554°N, 139.3092°E)
Time: 21:42:39
(UTC+00:00)

FALCON 9 DEB - Pass Details

Date: 21 April 2021
Orbit: 364 x 384 km, 53.0° (Epoch: 10 May)

Event Time Altitude Azimuth Distance (km) Brightness Sun altitude
Exits shadow 19:01:19 19° 215° (SW) 965 4.4 -12.4°
Drops below altitude 10° 19:03:05 10° 181° (S) 1,379 5.4 -12.1°
Sets 19:05:26 0° 164° (SSE) 2,230 6.6 -11.6°
